EW2167 Weather Reports


Display with metric or nautical units.
time (UTC)temp
F
wind
direction
speed
MPH
gust
MPH
rain 1hr
in
rain 24hr
in
rain mn
in
humidity
%
barometer
mb
20260507163032 56 179 3.0 12.0 0.00 0.00 0.00 50 1016.0
20260507161530 56 313 2.0 11.0 0.00 0.00 0.00 57 1016.0
20260507160034 55 336 2.0 7.0 0.00 0.00 0.00 52 1016.1
20260507154532 54 342 3.0 9.0 0.00 0.00 0.00 47 1016.0
20260507153035 54 23 3.0 9.0 0.00 0.00 0.00 46 1016.0
20260507151533 54 207 2.0 10.0 0.00 0.00 0.00 49 1015.9
20260507150030 53 36 2.0 8.0 0.00 0.00 0.00 47 1016.1
20260507144534 53 217 2.0 10.0 0.00 0.00 0.00 51 1016.0
20260507143033 53 329 2.0 12.0 0.00 0.00 0.00 52 1016.0
20260507141530 52 294 2.0 9.0 0.00 0.00 0.00 50 1016.1
20260507140033 52 306 2.0 10.0 0.00 0.00 0.00 54 1016.0
20260507134532 51 12 5.0 10.0 0.00 0.00 0.00 51 1016.0
20260507133033 50 32 4.0 9.0 0.00 0.00 0.00 60 1015.9
20260507131539 50 17 2.0 7.0 0.00 0.00 0.00 64 1015.9
20260507130030 49 0 1.0 8.0 0.00 0.00 0.00 67 1016.0
20260507124533 48 0 1.0 4.0 0.00 0.00 0.00 65 1015.9
20260507123030 47 0 0.0 5.0 0.00 0.00 0.00 68 1016.0
20260507121531 46 0 1.0 4.0 0.00 0.00 0.00 69 1015.9
20260507120032 45 0 0.0 3.0 0.00 0.00 0.00 74 1015.9
20260507114532 44 320 0.0 5.0 0.00 0.00 0.00 74 1015.9
20260507113036 43 0 0.0 2.0 0.00 0.00 0.00 77 1015.9
20260507111530 41 0 0.0 2.0 0.00 0.00 0.00 81 1015.9
20260507110029 39 0 0.0 0.0 0.00 0.00 0.00 84 1015.7
20260507104534 39 0 0.0 0.0 0.00 0.00 0.00 83 1015.5
20260507103030 39 0 0.0 0.0 0.00 0.00 0.00 84 1015.4
20260507101552 40 0 0.0 0.0 0.00 0.00 0.00 82 1015.5
20260507100034 41 0 0.0 0.0 0.00 0.00 0.00 81 1015.5
20260507094532 41 0 0.0 2.0 0.00 0.00 0.00 82 1015.4
20260507093032 41 0 0.0 1.0 0.00 0.00 0.00 81 1015.5
20260507091550 41 0 0.0 2.0 0.00 0.00 0.00 82 1015.4
20260507090033 41 0 0.0 1.0 0.00 0.00 0.00 85 1015.3
20260507084530 40 0 0.0 1.0 0.00 0.00 0.00 85 1015.1
20260507083032 42 0 0.0 1.0 0.00 0.00 0.00 82 1015.0
20260507081542 43 0 0.0 4.0 0.00 0.00 0.00 82 1014.9
20260507080030 43 0 0.0 1.0 0.00 0.00 0.00 83 1014.9
20260507074537 43 0 0.0 1.0 0.00 0.05 0.00 85 1014.9
20260507073035 42 0 0.0 0.0 0.00 0.05 0.00 88 1014.9
20260507071530 41 0 0.0 0.0 0.00 0.05 0.00 89 1014.8
20260507070036 41 0 0.0 1.0 0.00 0.05 0.00 88 1014.9
20260507064533 42 0 0.0 1.0 0.00 0.16 0.00 89 1014.9
20260507063031 42 0 0.0 1.0 0.00 0.16 0.00 90 1015.0
20260507061534 42 0 0.0 1.0 0.00 0.16 0.00 89 1015.2
20260507060032 42 0 0.0 1.0 0.00 0.16 0.00 89 1015.1
20260507054529 42 0 0.0 1.0 0.00 0.28 0.00 89 1015.2
20260507053029 42 0 0.0 0.0 0.00 0.28 0.00 89 1015.3
20260507051532 43 0 0.0 1.0 0.00 0.28 0.00 88 1015.3
20260507050033 44 0 0.0 3.0 0.00 0.28 0.00 88 1015.1
20260507044543 44 0 0.0 0.0 0.00 0.47 0.00 88 1015.3
20260507043037 44 0 0.0 0.0 0.00 0.47 0.00 87 1015.3
20260507041531 45 0 0.0 0.0 0.00 0.47 0.00 87 1015.3
20260507040030 45 0 0.0 0.0 0.00 0.47 0.00 87 1015.3
20260507034532 45 0 0.0 0.0 0.00 0.63 0.47 86 1015.2
20260507033032 45 0 0.0 0.0 0.00 0.63 0.47 87 1015.2
20260507031532 45 0 0.0 0.0 0.00 0.63 0.47 86 1015.1
20260507030030 46 0 0.0 0.0 0.00 0.63 0.47 86 1015.3
20260507024531 47 0 0.0 0.0 0.00 0.68 0.47 84 1015.3
20260507023030 47 0 0.0 0.0 0.00 0.68 0.47 83 1015.1
20260507021529 47 0 0.0 0.0 0.00 0.68 0.47 85 1015.1
20260507020034 48 0 0.0 0.0 0.00 0.68 0.47 84 1015.0
20260507014537 49 0 0.0 0.0 0.00 0.75 0.47 82 1014.9
20260507013035 49 0 0.0 0.0 0.00 0.75 0.47 80 1014.7
20260507011532 49 0 0.0 0.0 0.00 0.75 0.47 85 1014.5
20260507010032 50 0 0.0 0.0 0.00 0.75 0.47 84 1014.4
20260507004532 51 0 0.0 0.0 0.00 0.93 0.47 82 1014.6
20260507003031 53 0 0.0 0.0 0.00 0.93 0.47 68 1014.4
20260507001531 54 0 0.0 0.0 0.00 0.93 0.47 65 1014.3
20260507000032 55 0 0.0 1.0 0.00 0.93 0.47 64 1014.1
20260506234530 56 26 0.0 4.0 0.00 0.98 0.47 60 1014.1
20260506233032 56 5 0.0 6.0 0.00 0.98 0.47 62 1014.0
20260506231529 57 323 0.0 5.0 0.00 0.98 0.47 59 1014.0
20260506230030 57 5 3.0 10.0 0.00 0.98 0.47 56 1013.6
20260506224534 58 0 1.0 9.0 0.00 1.01 0.47 56 1013.7
20260506223034 58 295 2.0 7.0 0.00 1.01 0.47 58 1013.7
20260506221532 57 305 0.0 5.0 0.00 1.01 0.47 59 1013.9
20260506220036 57 329 0.0 4.0 0.00 1.01 0.47 59 1014.0
20260506214529 57 0 1.0 5.0 0.00 1.04 0.47 63 1014.0
20260506213028 57 360 0.0 5.0 0.00 1.04 0.47 59 1014.0
20260506211531 57 0 1.0 6.0 0.00 1.04 0.47 60 1013.7
20260506210032 58 0 0.0 4.0 0.00 1.04 0.47 61 1013.7
20260506204530 58 251 2.0 7.0 0.00 1.12 0.47 57 1013.5
20260506203030 58 352 1.0 5.0 0.00 1.12 0.47 55 1013.7
20260506201542 58 319 0.0 6.0 0.00 1.12 0.47 58 1013.6
20260506200031 57 292 1.0 5.0 0.00 1.12 0.47 57 1013.7
20260506194532 57 0 1.0 8.0 0.00 1.22 0.47 57 1013.9
20260506193037 57 44 3.0 9.0 0.00 1.22 0.47 57 1013.8
20260506191529 57 332 1.0 8.0 0.00 1.22 0.47 55 1013.6
20260506190032 58 312 3.0 13.0 0.00 1.22 0.47 56 1013.3
20260506184529 58 38 5.0 13.0 0.00 1.29 0.47 55 1013.2
20260506183030 58 19 1.0 13.0 0.00 1.29 0.47 59 1013.1
20260506181532 58 55 4.0 13.0 0.00 1.29 0.47 58 1013.2
20260506180030 59 336 2.0 7.0 0.00 1.29 0.47 59 1013.3
20260506174529 58 66 3.0 11.0 0.00 1.29 0.47 59 1013.4
20260506173030 58 246 2.0 10.0 0.00 1.29 0.47 62 1013.7
20260506171539 57 319 3.0 9.0 0.00 1.29 0.47 65 1013.7
20260506170031 56 30 3.0 8.0 0.00 1.29 0.47 62 1013.7
20260506164530 55 315 1.0 10.0 0.00 1.29 0.47 64 1013.9